Location: Unspecified
(0.0000°N, 0.0000°E)
Time: 13:07:54
(UTC+02:00)

Envisat - Visible Passes

Search period start: 23 October 2021 00:00
Search period end: 01 November 2021 23:00
Orbit: 764 x 766 km, 98.2° (Epoch: 22 October)

Date Brightness Start Highest point End Pass type
(mag) Time Alt. Az. Time Alt. Az. Time Alt. Az.
23 Oct 6.3 05:34:18 10° E 05:35:32 11° ESE 05:36:47 10° ESE visible
23 Oct 3.4 07:09:30 10° N 07:14:15 42° WNW 07:19:02 10° SSW visible
24 Oct 3.4 06:32:29 10° NNE 06:37:30 67° ESE 06:42:32 10° S visible
25 Oct 5.3 05:56:47 10° NE 06:00:46 23° ESE 06:04:45 10° SSE visible
26 Oct 3.0 06:57:48 10° N 07:02:45 58° WNW 07:07:44 10° SSW visible
27 Oct 4.0 06:21:08 10° NNE 06:26:00 48° ESE 06:30:53 10° S visible
28 Oct 5.8 05:46:03 10° ENE 05:49:17 17° ESE 05:52:31 10° SE visible
29 Oct 2.9 06:46:12 10° N 06:51:15 80° WNW 06:56:21 10° SSW visible
30 Oct 4.6 06:09:56 10° NE 06:14:31 35° ESE 06:19:07 10° SSE visible
31 Oct 6.2 04:35:49 10° E 04:37:47 12° ESE 04:39:45 10° SE visible
31 Oct 3.5 06:11:51 10° N 06:16:30 38° WNW 06:21:11 10° SW visible
01 Nov 3.2 05:34:42 10° NNE 05:39:45 75° ESE 05:44:50 10° S visible
